ASA5TM KJAX-KCHS

Flight info

Callsign ASA5TM
Flight time 0h 40m
Altitude 23000
Route CROSB2 WISPR SAV BAGGY3
Aircraft E190/M-SDE3GILORVW/S

Departure

Time 2026-04-17 04:56
Airport Jacksonville International Airport (KJAX)

Arrival

Time 2026-04-17 05:36
Airport Charleston International Airport (KCHS)
Time Latitude Longitude Altitude Speed Heading
2026-04-17 04:01 30.49296 -81.68502 24 ft 0 kts 264°
2026-04-17 04:41 30.49297 -81.68496 24 ft 2 kts 264°
2026-04-17 04:41 30.49298 -81.68481 24 ft 2 kts 264°
2026-04-17 04:42 30.49299 -81.68467 24 ft 2 kts 264°
2026-04-17 04:42 30.49300 -81.68452 24 ft 2 kts 264°
2026-04-17 04:42 30.49299 -81.68437 24 ft 2 kts 296°
2026-04-17 04:42 30.49290 -81.68426 24 ft 2 kts 330°
2026-04-17 04:43 30.49280 -81.68421 24 ft 1 kts 354°
2026-04-17 04:43 30.49279 -81.68421 24 ft 0 kts 354°
2026-04-17 04:49 30.49294 -81.68424 24 ft 4 kts 353°
2026-04-17 04:50 30.49305 -81.68425 24 ft 5 kts 353°
2026-04-17 04:50 30.49350 -81.68431 24 ft 11 kts 354°
2026-04-17 04:50 30.49437 -81.68443 24 ft 17 kts 345°
2026-04-17 04:50 30.49524 -81.68520 24 ft 20 kts 357°
2026-04-17 04:51 30.49658 -81.68498 24 ft 25 kts 11°
2026-04-17 04:51 30.49814 -81.68456 24 ft 29 kts 14°
2026-04-17 04:51 30.49911 -81.68482 24 ft 10 kts 246°
2026-04-17 04:51 30.49885 -81.68549 24 ft 13 kts 251°
2026-04-17 04:52 30.49857 -81.68645 24 ft 17 kts 249°
2026-04-17 04:52 30.49821 -81.68765 24 ft 20 kts 252°
2026-04-17 04:52 30.49778 -81.68904 24 ft 23 kts 249°
2026-04-17 04:52 30.49730 -81.69061 24 ft 26 kts 248°
2026-04-17 04:53 30.49684 -81.69213 24 ft 14 kts 288°
2026-04-17 04:53 30.49758 -81.69221 24 ft 15 kts 10°
2026-04-17 04:53 30.49845 -81.69215 24 ft 14 kts 25°
2026-04-17 04:55 30.49948 -81.68932 24 ft 75 kts 71°
2026-04-17 04:55 30.50152 -81.68243 24 ft 141 kts 70°
2026-04-17 04:55 30.50479 -81.67245 234 ft 173 kts 69°
2026-04-17 04:56 30.50856 -81.66140 750 ft 190 kts 69°
2026-04-17 04:56 30.51262 -81.64928 1441 ft 193 kts 70°
2026-04-17 04:56 30.51643 -81.63766 2030 ft 194 kts 69°
2026-04-17 04:56 30.52060 -81.62489 2475 ft 214 kts 69°
2026-04-17 04:57 30.52506 -81.61105 2924 ft 227 kts 68°
2026-04-17 04:57 30.53248 -81.59835 2985 ft 232 kts 34°
2026-04-17 04:57 30.54743 -81.59255 3302 ft 255 kts 356°
2026-04-17 04:57 30.56289 -81.59490 3863 ft 269 kts 348°
2026-04-17 04:58 30.57866 -81.59800 4685 ft 273 kts 349°
2026-04-17 04:58 30.59428 -81.60156 5598 ft 272 kts 343°
2026-04-17 04:58 30.60957 -81.60668 6505 ft 270 kts 342°
2026-04-17 04:58 30.62464 -81.61178 7325 ft 270 kts 342°
2026-04-17 04:59 30.64038 -81.61565 8060 ft 274 kts 353°
2026-04-17 04:59 30.65656 -81.61588 8734 ft 279 kts
2026-04-17 04:59 30.67305 -81.61386 9365 ft 284 kts
2026-04-17 04:59 30.68957 -81.61059 9985 ft 289 kts
2026-04-17 05:00 30.70720 -81.60636 10598 ft 294 kts
2026-04-17 05:00 30.72520 -81.60165 11122 ft 303 kts 10°
2026-04-17 05:00 30.74248 -81.59692 11588 ft 312 kts 11°
2026-04-17 05:00 30.76097 -81.59177 12039 ft 322 kts 11°
2026-04-17 05:01 30.78031 -81.58631 12536 ft 330 kts 11°
2026-04-17 05:01 30.79938 -81.58091 13096 ft 335 kts 11°
2026-04-17 05:01 30.81914 -81.57529 13705 ft 338 kts 11°
2026-04-17 05:01 30.83850 -81.56979 14293 ft 340 kts 11°
2026-04-17 05:02 30.85952 -81.56381 14896 ft 343 kts 10°
2026-04-17 05:02 30.88054 -81.55782 15461 ft 347 kts 11°
2026-04-17 05:02 30.90197 -81.55171 16025 ft 351 kts 11°
2026-04-17 05:02 30.92319 -81.54565 16559 ft 356 kts 10°
2026-04-17 05:03 30.94455 -81.53955 17070 ft 360 kts 10°
2026-04-17 05:03 30.96612 -81.53339 17584 ft 363 kts 11°
2026-04-17 05:03 30.98936 -81.52676 18141 ft 367 kts 10°
2026-04-17 05:03 31.01133 -81.52047 18699 ft 369 kts 10°
2026-04-17 05:04 31.03329 -81.51419 19232 ft 371 kts
2026-04-17 05:04 31.05442 -81.50816 19725 ft 373 kts
2026-04-17 05:04 31.07936 -81.50101 20313 ft 375 kts
2026-04-17 05:04 31.10314 -81.49422 20845 ft 378 kts
2026-04-17 05:05 31.12627 -81.48760 21357 ft 381 kts
2026-04-17 05:05 31.14803 -81.48136 21842 ft 383 kts
2026-04-17 05:05 31.16948 -81.47521 22304 ft 385 kts
2026-04-17 05:05 31.19121 -81.46898 22768 ft 386 kts
2026-04-17 05:06 31.21574 -81.46195 23252 ft 389 kts
2026-04-17 05:06 31.23738 -81.45573 23627 ft 393 kts
2026-04-17 05:06 31.25963 -81.44935 24000 ft 397 kts
2026-04-17 05:06 31.28198 -81.44292 24379 ft 400 kts
2026-04-17 05:07 31.30443 -81.43647 24775 ft 402 kts
2026-04-17 05:07 31.32687 -81.43002 25055 ft 404 kts
2026-04-17 05:07 31.35089 -81.42312 25093 ft 417 kts
2026-04-17 05:07 31.37446 -81.41634 25107 ft 429 kts
2026-04-17 05:08 31.39899 -81.40926 25105 ft 433 kts
2026-04-17 05:08 31.42325 -81.40226 25100 ft 434 kts
2026-04-17 05:08 31.44796 -81.39513 25091 ft 435 kts
2026-04-17 05:08 31.47517 -81.38727 25090 ft 434 kts
2026-04-17 05:09 31.50283 -81.37928 25087 ft 432 kts
2026-04-17 05:09 31.53059 -81.37126 25087 ft 434 kts
2026-04-17 05:09 31.55823 -81.36327 25088 ft 432 kts
2026-04-17 05:09 31.58298 -81.35611 25086 ft 432 kts
2026-04-17 05:10 31.60858 -81.34870 25084 ft 432 kts
2026-04-17 05:10 31.63523 -81.34099 25077 ft 434 kts
2026-04-17 05:10 31.66383 -81.33270 25078 ft 434 kts
2026-04-17 05:10 31.69047 -81.32497 25083 ft 433 kts
2026-04-17 05:11 31.71516 -81.31781 25082 ft 433 kts
2026-04-17 05:11 31.73982 -81.31065 25085 ft 433 kts
2026-04-17 05:11 31.76459 -81.30346 25083 ft 434 kts
2026-04-17 05:11 31.78931 -81.29627 25080 ft 435 kts
2026-04-17 05:12 31.81349 -81.28925 25080 ft 434 kts
2026-04-17 05:12 31.83781 -81.28217 25081 ft 433 kts
2026-04-17 05:12 31.86204 -81.27512 25076 ft 433 kts
2026-04-17 05:12 31.88648 -81.26800 25077 ft 434 kts
2026-04-17 05:13 31.91138 -81.26074 25073 ft 431 kts
2026-04-17 05:13 31.93531 -81.25375 25065 ft 423 kts
2026-04-17 05:13 31.95873 -81.24693 25070 ft 420 kts
2026-04-17 05:13 31.98239 -81.24003 25075 ft 419 kts
2026-04-17 05:14 32.00632 -81.23292 25069 ft 417 kts
2026-04-17 05:14 32.02929 -81.22626 24802 ft 406 kts
2026-04-17 05:14 32.05258 -81.22063 24219 ft 400 kts
2026-04-17 05:14 32.07518 -81.21549 23521 ft 401 kts
2026-04-17 05:15 32.09764 -81.21034 22823 ft 401 kts
2026-04-17 05:15 32.12011 -81.20510 22141 ft 401 kts
2026-04-17 05:15 32.14259 -81.19450 21428 ft 410 kts 28°
2026-04-17 05:15 32.16259 -81.17340 20723 ft 415 kts 49°
2026-04-17 05:16 32.17923 -81.14719 20086 ft 410 kts 51°
2026-04-17 05:16 32.19561 -81.12117 19472 ft 405 kts 51°
2026-04-17 05:16 32.21174 -81.09558 18839 ft 401 kts 51°
2026-04-17 05:16 32.22730 -81.07090 18191 ft 398 kts 52°
2026-04-17 05:17 32.24305 -81.04590 17534 ft 395 kts 52°
2026-04-17 05:17 32.25848 -81.02139 16974 ft 390 kts 52°
2026-04-17 05:17 32.27382 -80.99701 16376 ft 386 kts 52°
2026-04-17 05:17 32.28883 -80.97315 15799 ft 381 kts 51°
2026-04-17 05:18 32.30400 -80.94900 15229 ft 376 kts 52°
2026-04-17 05:18 32.31954 -80.92426 14637 ft 371 kts 51°
2026-04-17 05:18 32.33414 -80.90099 14051 ft 367 kts 51°
2026-04-17 05:18 32.34840 -80.87827 13467 ft 363 kts 51°
2026-04-17 05:19 32.36268 -80.85549 12870 ft 359 kts 51°
2026-04-17 05:19 32.37701 -80.83261 12237 ft 355 kts 51°
2026-04-17 05:19 32.39103 -80.81022 11655 ft 351 kts 51°
2026-04-17 05:19 32.40488 -80.78809 11198 ft 343 kts 51°
2026-04-17 05:20 32.41828 -80.76666 10837 ft 333 kts 51°
2026-04-17 05:20 32.43160 -80.74535 10492 ft 324 kts 51°
2026-04-17 05:20 32.44451 -80.72469 10150 ft 315 kts 51°
2026-04-17 05:20 32.45702 -80.70465 9823 ft 306 kts 51°
2026-04-17 05:21 32.46923 -80.68509 9451 ft 301 kts 51°
2026-04-17 05:21 32.48133 -80.66570 9020 ft 298 kts 51°
2026-04-17 05:21 32.49345 -80.64625 8532 ft 298 kts 51°
2026-04-17 05:21 32.50531 -80.62722 8076 ft 297 kts 51°
2026-04-17 05:22 32.51723 -80.60809 7617 ft 296 kts 51°
2026-04-17 05:22 32.52903 -80.58913 7183 ft 293 kts 52°
2026-04-17 05:22 32.54070 -80.57037 6754 ft 291 kts 51°
2026-04-17 05:22 32.55206 -80.55212 6316 ft 290 kts 51°
2026-04-17 05:23 32.56343 -80.53381 5882 ft 287 kts 51°
2026-04-17 05:23 32.57466 -80.51574 5441 ft 286 kts 51°
2026-04-17 05:23 32.58569 -80.49798 5053 ft 286 kts 51°
2026-04-17 05:23 32.59655 -80.48048 4979 ft 286 kts 51°
2026-04-17 05:24 32.60741 -80.46298 4962 ft 284 kts 51°
2026-04-17 05:24 32.61831 -80.44578 4961 ft 284 kts 49°
2026-04-17 05:24 32.62953 -80.42892 4960 ft 283 kts 49°
2026-04-17 05:24 32.64000 -80.41318 4954 ft 284 kts 49°
2026-04-17 05:25 32.65054 -80.39733 4959 ft 283 kts 49°
2026-04-17 05:25 32.66242 -80.37945 4958 ft 283 kts 49°
2026-04-17 05:25 32.67296 -80.36359 4958 ft 283 kts 49°
2026-04-17 05:25 32.68366 -80.34847 4957 ft 281 kts 38°
2026-04-17 05:26 32.69761 -80.33864 4979 ft 278 kts 21°
2026-04-17 05:26 32.71270 -80.33085 4963 ft 278 kts 20°
2026-04-17 05:26 32.72810 -80.32301 4958 ft 277 kts 20°
2026-04-17 05:26 32.74316 -80.31538 4957 ft 277 kts 20°
2026-04-17 05:27 32.75846 -80.30766 4958 ft 277 kts 20°
2026-04-17 05:27 32.77364 -80.29999 4958 ft 277 kts 20°
2026-04-17 05:27 32.78875 -80.29237 4960 ft 277 kts 20°
2026-04-17 05:27 32.80401 -80.28467 4960 ft 277 kts 20°
2026-04-17 05:28 32.81924 -80.27693 4960 ft 277 kts 20°
2026-04-17 05:28 32.83428 -80.26933 4929 ft 270 kts 20°
2026-04-17 05:28 32.84873 -80.26193 4652 ft 266 kts 20°
2026-04-17 05:28 32.86322 -80.25451 4450 ft 257 kts 20°
2026-04-17 05:29 32.87660 -80.24757 4518 ft 235 kts 19°
2026-04-17 05:29 32.88896 -80.24104 4483 ft 219 kts 20°
2026-04-17 05:29 32.90031 -80.23489 4428 ft 206 kts 20°
2026-04-17 05:29 32.91124 -80.22898 4282 ft 198 kts 20°
2026-04-17 05:30 32.92169 -80.22329 4051 ft 196 kts 20°
2026-04-17 05:30 32.93229 -80.21748 3790 ft 195 kts 19°
2026-04-17 05:30 32.94243 -80.21196 3690 ft 184 kts 20°
2026-04-17 05:30 32.95195 -80.20662 3545 ft 177 kts 20°
2026-04-17 05:31 32.96143 -80.20129 3331 ft 174 kts 20°
2026-04-17 05:31 32.97060 -80.19611 3093 ft 173 kts 19°
2026-04-17 05:31 32.97992 -80.19083 2840 ft 173 kts 20°
2026-04-17 05:31 32.98848 -80.18415 2577 ft 177 kts 37°
2026-04-17 05:32 32.99418 -80.17377 2279 ft 184 kts 74°
2026-04-17 05:32 32.99421 -80.16092 2012 ft 184 kts 102°
2026-04-17 05:32 32.99194 -80.14854 1797 ft 182 kts 104°
2026-04-17 05:32 32.98960 -80.13601 1612 ft 183 kts 104°
2026-04-17 05:33 32.98730 -80.12372 1587 ft 179 kts 104°
2026-04-17 05:33 32.98511 -80.11160 1572 ft 180 kts 103°
2026-04-17 05:33 32.98298 -80.09944 1569 ft 180 kts 102°
2026-04-17 05:33 32.98079 -80.08703 1571 ft 180 kts 109°
2026-04-17 05:34 32.97542 -80.07707 1560 ft 174 kts 146°
2026-04-17 05:34 32.96685 -80.07214 1590 ft 169 kts 165°
2026-04-17 05:34 32.95770 -80.06796 1332 ft 175 kts 164°
2026-04-17 05:34 32.94879 -80.06450 1149 ft 159 kts 166°
2026-04-17 05:35 32.94006 -80.06192 807 ft 155 kts 169°
2026-04-17 05:35 32.93188 -80.05944 560 ft 146 kts 165°
2026-04-17 05:35 32.92427 -80.05615 321 ft 139 kts 158°
2026-04-17 05:35 32.91754 -80.05179 125 ft 129 kts 148°
2026-04-17 05:36 32.91171 -80.04717 57 ft 109 kts 147°
2026-04-17 05:36 32.90724 -80.04378 57 ft 75 kts 147°
2026-04-17 05:36 32.90438 -80.04161 53 ft 44 kts 146°
2026-04-17 05:36 32.90302 -80.04050 54 ft 12 kts 144°
2026-04-17 05:37 32.90288 -80.04039 54 ft 2 kts 142°
2026-04-17 05:37 32.90272 -80.04025 54 ft 5 kts 144°
2026-04-17 05:37 32.90228 -80.03989 55 ft 13 kts 149°
2026-04-17 05:37 32.90142 -80.03928 57 ft 21 kts 146°
2026-04-17 05:38 32.90017 -80.03831 56 ft 30 kts 152°
2026-04-17 05:38 32.89833 -80.03821 56 ft 37 kts 200°
2026-04-17 05:38 32.89674 -80.03965 57 ft 31 kts 262°
2026-04-17 05:38 32.89686 -80.04177 57 ft 30 kts 274°
2026-04-17 05:39 32.89706 -80.04388 57 ft 29 kts 271°
2026-04-17 05:39 32.89699 -80.04584 57 ft 19 kts 261°
2026-04-17 05:39 32.89629 -80.04630 56 ft 14 kts 185°
2026-04-17 05:39 32.89562 -80.04669 57 ft 12 kts 270°
2026-04-17 05:40 32.89559 -80.04714 57 ft 0 kts 255°